Regional Weather Roundup
Issued by NWS

Home | Current Version | Previous Version | Graphics & Text | Print | Product List | Glossary On
Versions: 1 2 3 4 5 6 7 8 9 10 11 12 13 14 15 16 17 18 19 20 21 22 23 24 25 26 27 28 29 30 31 32 33 34 35 36 37 38 39 40 41 42 43 44 45 46 47 48 49 50
000
ASUS43 KOAX 181302
RWRNE

WEATHER ROUNDUP FOR NEBRASKA
NATIONAL WEATHER SERVICE OMAHA NE
800 AM CDT SAT APR 18 2015

NOTES: SATELLITE DATA IS BEING USED TO AUGMENT CLOUD COVER ABOVE
       12000 FEET.
       "FAIR" INDICATES FEW OR NO CLOUDS BELOW 12,000 FEET WITH NO
       SIGNIFICANT WEATHER AND/OR OBSTRUCTIONS TO VISIBILITY.

  * THESE STATIONS DO NOT REPORT WEATHER SUCH AS RAIN...SNOW OR FOG.

NEZ001>004-019>022-054>056-181400-
NEBRASKA PANHANDLE

CITY           SKY/WX    TMP DP  RH WIND       PRES   REMARKS
SCOTTSBLUFF    CLOUDY    43  32  65 W5        29.93F
ALLIANCE       CLOUDY    45  44  97 SW6       29.91R
CHADRON        LGT RAIN  47  45  93 NE9       29.95F
SIDNEY         CLOUDY    40  38  93 NW8       29.93S WCI  34
$$

NEZ057>060-069>072-079>082-181400-
SOUTHWEST NEBRASKA

CITY           SKY/WX    TMP DP  RH WIND       PRES   REMARKS
NORTH PLATTE   MOSUNNY   45  44  97 E5        29.91R
IMPERIAL       FOG       42  41  96 CALM      29.92R VSB 1/4
LEXINGTON      MOSUNNY   48  47  93 CALM      29.92R
MCCOOK         SUNNY     47  44  90 SW3       29.93R
$$

NEZ005>010-023>029-035>040-094-181400-
NORTH CENTRAL NEBRASKA

CITY           SKY/WX    TMP DP  RH WIND       PRES   REMARKS
VALENTINE      RAIN      49  48  97 NE12      29.94F FOG
AINSWORTH      LGT RAIN  50  49  99 NE18      29.89F
BROKEN BOW     CLOUDY    52  51  97 N3        29.91R FOG
ORD            CLOUDY    53  51  93 CALM      29.90
$$

NEZ041-046>049-061>064-073>077-083>087-181400-
SOUTH CENTRAL NEBRASKA

CITY           SKY/WX    TMP DP  RH WIND       PRES   REMARKS
GRAND ISLAND   LGT RAIN  55  53  93 E12       29.89F
HASTINGS       CLOUDY    58  50  75 SW14      29.90R
KEARNEY *      CLOUDY    54  52  94 CALM      29.92S
YORK           CLOUDY    57  57 100 CALM      29.93R FOG
$$

NEZ011>018-030>034-042>045-181400-
NORTHEAST NEBRASKA

CITY           SKY/WX    TMP DP  RH WIND       PRES   REMARKS
BLAIR          CLOUDY    62  54  74 E13G18    29.92F
COLUMBUS *     CLOUDY    57  50  77 E12       29.92R
FREMONT        CLOUDY    61  55  79 E6        29.91F
TEKAMAH        CLOUDY    59  53  80 N6        29.92F
$$

NEZ050>053-065>068-078-088>093-181400-
SOUTHEAST NEBRASKA

CITY           SKY/WX    TMP DP  RH WIND       PRES   REMARKS
LINCOLN        LGT RAIN  61  57  87 CALM      29.91S
OMAHA EPPLEY   LGT RAIN  63  56  78 E13       29.92F
FALLS CITY     LGT RAIN  60  56  86 SE5       29.90S
PLATTSMOUTH    CLOUDY    61  54  78 E5        29.91F
$$

NEZ044-045-051>053-067-181400-
OMAHA AREA

CITY           SKY/WX    TMP DP  RH WIND       PRES   REMARKS
OMAHA EPPLEY   LGT RAIN  63  56  78 E13       29.92F
BLAIR          CLOUDY    62  54  74 E13G18    29.92F
FREMONT        CLOUDY    61  55  79 E6        29.91F
OFFUTT AFB     CLOUDY    62  55  79 E6        29.90F
PLATTSMOUTH    CLOUDY    61  54  78 E5        29.91F
$$



USA.gov is the U.S. government's official web portal to all federal, state and local government web resources and services.